Weather History for Craig, CO

Change the Weather History Date:

Thursday, January 24, 2013

  Actual Average Record
Temperature  
Mean Temperature 21 °F 16 °F  
Max Temperature 39 °F 30 °F 39 °F (2009)
Min Temperature 3 °F 3 °F -17 °F (2002)
Degree Days  
Heating Degree Days 44 49  
Month to date heating degree days 1534 1191  
Since 1 July heating degree days 4705 4747  
Cooling Degree Days 0 0  
Month to date cooling degree days 0 0  
Year to date cooling degree days 0 0  
Moisture  
Dew Point 21 °F    
Average Humidity 76    
Maximum Humidity 89    
Minimum Humidity 63    
Precipitation  
Precipitation T in 0.03 in 0.51 in (1999)
Month to date precipitation 0.26 0.66  
Year to date precipitation 0.26 0.66  
Sea Level Pressure  
Sea Level Pressure 30.42 in    
Wind  
Wind Speed 3 mph (SW)    
Max Wind Speed 21 mph    
Max Gust Speed 23 mph    
Visibility 10 miles    
Events Rain    
T = Trace of Precipitation, MM = Missing Value Source: NWS Daily Summary

Daily Weather History Graph

Daily Weather History Graph

Search for Another Location

Airport:

Trip Planner

Search our weather history database for the weather conditions in past years. The results will help you decide how hot, cold, wet, or windy it might be!

Date:

Astronomy

Jan. 24, 2013 Rise Set
Actual Time 7:26 AM MST 5:18 PM MST
Civil Twilight 6:56 AM MST 5:48 PM MST
Nautical Twilight 6:23 AM MST 6:21 PM MST
Astronomical Twilight 5:51 AM MST 6:53 PM MST
Moon 3:23 PM MST 5:25 AM MST
Length of Visible Light 10h 51m
Length of Day
9h 52m
Waxing Gibbous, 95% of the Moon is Illuminated
Jan 24
Waxing Gibbous
Jan 26
Full
Feb 3
Last Quarter
Feb 10
New
Feb 17
First Quarter

Hourly Weather History & Observations

Time (MST) Temp. Windchill Dew Point Humidity Pressure Visibility Wind Dir Wind Speed Gust Speed Precip Events Conditions
12:53 AM 6.1 °F - 1.0 °F 80% 30.53 in 10.0 mi Calm Calm - N/A   Clear
1:53 AM 8.1 °F - 3.0 °F 80% 30.51 in 10.0 mi Calm Calm - N/A   Clear
2:53 AM 5.0 °F - -0.0 °F 80% 30.52 in 10.0 mi Calm Calm - N/A   Clear
3:53 AM 7.0 °F - 1.9 °F 80% 30.49 in 10.0 mi Calm Calm - N/A   Mostly Cloudy
4:53 AM 9.0 °F - 3.0 °F 77% 30.52 in 10.0 mi Calm Calm - N/A   Clear
5:53 AM 10.0 °F - 5.0 °F 80% 30.50 in 10.0 mi Calm Calm - N/A   Partly Cloudy
6:53 AM 14.0 °F - 7.0 °F 74% 30.49 in 10.0 mi Calm Calm - N/A   Overcast
7:53 AM 18.0 °F 8.7 °F 10.0 °F 71% 30.53 in 10.0 mi SSW 6.9 mph - N/A   Overcast
8:53 AM 18.0 °F - 12.9 °F 81% 30.51 in 10.0 mi Calm Calm - N/A   Overcast
9:53 AM 23.0 °F - 12.9 °F 65% 30.48 in 10.0 mi Calm Calm - N/A   Overcast
10:53 AM 26.1 °F - 15.1 °F 63% 30.50 in 10.0 mi Calm Calm - N/A   Overcast
11:53 AM 28.9 °F - 17.1 °F 61% 30.46 in 10.0 mi Calm Calm - N/A   Overcast
12:53 PM 30.9 °F - 19.0 °F 61% 30.43 in 10.0 mi Calm Calm - N/A   Overcast
1:53 PM 39.0 °F 32.8 °F 28.9 °F 67% 30.36 in 10.0 mi WSW 9.2 mph - N/A   Overcast
2:53 PM 37.9 °F 30.5 °F 30.0 °F 73% 30.38 in 10.0 mi SW 11.5 mph - N/A   Overcast
3:53 PM 39.0 °F 33.4 °F 30.0 °F 70% 30.38 in 10.0 mi West 8.1 mph - N/A   Overcast
4:53 PM 37.0 °F 31.6 °F 30.9 °F 79% 30.39 in 10.0 mi SW 6.9 mph - N/A   Overcast
5:31 PM 37.4 °F 33.8 °F 30.2 °F 75% 30.25 in 10.0 mi SW 4.6 mph - 0.00 in Rain Light Rain
5:53 PM 37.0 °F 32.4 °F 30.9 °F 79% 30.41 in 10.0 mi WSW 5.8 mph - 0.00 in Rain Light Rain
6:17 PM 35.6 °F 32.8 °F 30.2 °F 81% 30.27 in 10.0 mi SSW 3.5 mph - 0.00 in   Overcast
6:33 PM 35.6 °F 32.8 °F 30.2 °F 81% 30.27 in 10.0 mi ENE 3.5 mph - 0.00 in   Overcast
6:53 PM 35.1 °F - 30.9 °F 85% 30.41 in 10.0 mi Calm Calm - 0.00 in   Overcast
7:53 PM 35.1 °F 32.2 °F 30.9 °F 85% 30.39 in 10.0 mi NE 3.5 mph - N/A   Overcast
8:53 PM 34.0 °F - 30.0 °F 85% 30.42 in 10.0 mi Calm Calm - N/A   Overcast
9:53 PM 34.0 °F 29.8 °F 30.9 °F 89% 30.39 in 10.0 mi East 4.6 mph - N/A   Overcast
10:14 PM 33.8 °F - 30.2 °F 87% 30.28 in 10.0 mi Calm Calm - N/A   Overcast
10:53 PM 33.1 °F 28.7 °F 30.0 °F 89% 30.39 in 10.0 mi NNE 4.6 mph - N/A   Overcast
11:03 PM 33.8 °F - 30.2 °F 87% 30.30 in 10.0 mi Calm Calm - N/A   Overcast
11:33 PM 33.8 °F - 30.2 °F 87% 30.31 in 10.0 mi Calm Calm - N/A   Overcast
11:45 PM 33.8 °F - 30.2 °F 87% 30.30 in 10.0 mi Calm Calm - N/A   Overcast
11:53 PM 34.0 °F - 30.0 °F 85% 30.37 in 10.0 mi Calm Calm - N/A   Overcast